Weather History for KCDD - August, 2014

Change the Weather History Date:

Thursday, August 28, 2014

  Actual Average Record
Temperature  
Mean Temperature 56 °F -  
Max Temperature 73 °F 72 °F 91 °F (2013)
Min Temperature 39 °F 51 °F 39 °F (2011)
Degree Days  
Heating Degree Days 9    
Growing Degree Days 6 (Base 50)    
Moisture  
Dew Point 51 °F    
Average Humidity 80    
Maximum Humidity 100    
Minimum Humidity 50    
Precipitation  
Precipitation 0.00 in - - ()
Sea Level Pressure  
Sea Level Pressure 30.05 in    
Wind  
Wind Speed 1 mph (South)    
Max Wind Speed 8 mph    
Max Gust Speed -    
Visibility 10 miles    
Events      
Averages and records for this station are not official NWS values.
T = Trace of Precipitation, MM = Missing Value Source: NWS Daily Summary

Daily Weather History Graph

Daily Weather History Graph

Search for Another Location

Airport or City:

Trip Planner

Search our weather history database for the weather conditions in past years. The results will help you decide how hot, cold, wet, or windy it might be!

Date:

Astronomy

Aug. 28, 2014 Rise Set
Actual Time 6:22 AM CDT 7:59 PM CDT
Civil Twilight 5:49 AM CDT 8:31 PM CDT
Nautical Twilight 5:09 AM CDT 9:11 PM CDT
Astronomical Twilight 4:25 AM CDT 9:55 PM CDT
Moon 9:31 AM CDT (8/28) 9:04 PM CDT (8/28)
Length of Visible Light 14h 42m
Length of Day
13h 37m
Waxing Crescent, 9% of the Moon is Illuminated
Aug 28
Waxing Crescent
Sep 2
First Quarter
Sep 8
Full
Sep 15
Last Quarter
Sep 24
New

Hourly Weather History & Observations

Time (CDT) Temp. Dew Point Humidity Pressure Visibility Wind Dir Wind Speed Gust Speed Precip Events Conditions
12:12 AM 44.6 °F 44.6 °F 100% 30.14 in 7.0 mi Calm Calm - N/A   Clear
12:31 AM 44.6 °F 44.6 °F 100% - 10.0 mi Calm Calm - N/A   Clear
12:51 AM 44.6 °F 42.8 °F 93% 30.14 in 10.0 mi Calm Calm - N/A   Clear
1:12 AM 44.6 °F 42.8 °F 93% 30.15 in 10.0 mi Calm Calm - N/A   Clear
1:31 AM 42.8 °F 42.8 °F 100% 30.14 in 7.0 mi Calm Calm - N/A   Clear
1:51 AM 42.8 °F 42.8 °F 100% 30.14 in 10.0 mi Calm Calm - N/A   Clear
2:11 AM 42.8 °F 42.8 °F 100% 30.14 in 10.0 mi Calm Calm - N/A   Clear
2:31 AM 42.8 °F 42.8 °F 100% 30.13 in 10.0 mi Calm Calm - N/A   Clear
2:51 AM 42.8 °F 41.0 °F 93% 30.13 in 10.0 mi Calm Calm - N/A   Clear
3:11 AM 41.0 °F 41.0 °F 100% 30.13 in 10.0 mi Calm Calm - N/A   Clear
3:31 AM 41.0 °F 41.0 °F 100% 30.13 in 7.0 mi Calm Calm - N/A   Clear
3:51 AM 41.0 °F 39.2 °F 93% 30.13 in 7.0 mi Calm Calm - N/A   Clear
4:11 AM 41.0 °F 39.2 °F 93% 30.13 in 5.0 mi Calm Calm - N/A   Clear
4:31 AM 39.2 °F 39.2 °F 100% 30.13 in 10.0 mi Calm Calm - N/A   Clear
4:51 AM 39.2 °F 39.2 °F 100% 30.13 in 10.0 mi Calm Calm - N/A   Clear
5:11 AM 39.2 °F 39.2 °F 100% 30.13 in 10.0 mi Calm Calm - N/A   Clear
5:31 AM 39.2 °F 39.2 °F 100% 30.12 in 10.0 mi Calm Calm - N/A   Clear
5:51 AM 39.2 °F 39.2 °F 100% 30.13 in 10.0 mi Calm Calm - N/A   Clear
6:11 AM 39.2 °F 39.2 °F 100% 30.12 in 10.0 mi Calm Calm - N/A   Clear
6:32 AM 39.2 °F 39.2 °F 100% 30.12 in 10.0 mi Calm Calm - N/A   Clear
6:51 AM 39.2 °F 39.2 °F 100% 30.12 in 7.0 mi Calm Calm - N/A   Clear
7:12 AM 39.2 °F 39.2 °F 100% 30.11 in 10.0 mi Calm Calm - N/A   Clear
7:32 AM 41.0 °F 41.0 °F 100% 30.11 in 7.0 mi Calm Calm - N/A   Clear
7:52 AM 44.6 °F 44.6 °F 100% 30.11 in 5.0 mi Calm Calm - N/A   Clear
8:11 AM 48.2 °F 48.2 °F 100% 30.12 in 10.0 mi Calm Calm - N/A   Clear
8:32 AM 53.6 °F 53.6 °F 100% 30.12 in 10.0 mi Calm Calm - N/A   Clear
8:52 AM 55.4 °F 53.6 °F 94% 30.11 in 10.0 mi Calm Calm - N/A   Clear
9:11 AM 59.0 °F 55.4 °F 88% 30.11 in 10.0 mi South 4.6 mph - N/A   Clear
9:31 AM 60.8 °F 57.2 °F 88% 30.10 in 10.0 mi South 4.6 mph - N/A   Clear
9:51 AM 62.6 °F 57.2 °F 82% 30.10 in 10.0 mi South 5.8 mph - N/A   Clear
10:11 AM 62.6 °F 57.2 °F 82% 30.10 in 10.0 mi South 5.8 mph - N/A   Clear
10:31 AM 64.4 °F 57.2 °F 77% 30.09 in 10.0 mi SSW 3.5 mph - N/A   Clear
10:51 AM 66.2 °F 57.2 °F 73% 30.09 in 10.0 mi SSE 4.6 mph - N/A   Scattered Clouds
11:11 AM 66.2 °F 57.2 °F 73% 30.09 in 10.0 mi SSE 6.9 mph - N/A   Scattered Clouds
11:31 AM 68.0 °F 55.4 °F 64% 30.08 in 10.0 mi South 6.9 mph - N/A   Scattered Clouds
11:51 AM 69.8 °F 55.4 °F 60% 30.08 in 10.0 mi South 5.8 mph - N/A   Scattered Clouds
12:11 PM 69.8 °F 55.4 °F 60% 30.07 in 10.0 mi South 4.6 mph - N/A   Scattered Clouds
12:31 PM 69.8 °F 55.4 °F 60% 30.06 in 10.0 mi South 3.5 mph - N/A   Scattered Clouds
12:51 PM 69.8 °F 55.4 °F 60% 30.06 in 10.0 mi South 3.5 mph - N/A   Scattered Clouds
1:11 PM 69.8 °F 55.4 °F 60% 30.06 in 10.0 mi SSW 3.5 mph - N/A   Scattered Clouds
1:31 PM 71.6 °F 53.6 °F 53% 30.05 in 10.0 mi SE 5.8 mph - N/A   Scattered Clouds
1:51 PM 71.6 °F 53.6 °F 53% 30.05 in 10.0 mi South 8.1 mph - N/A   Mostly Cloudy
2:11 PM 73.4 °F 55.4 °F 53% 30.04 in 10.0 mi SSE 4.6 mph - N/A   Mostly Cloudy
2:31 PM 71.6 °F 53.6 °F 53% 30.03 in 10.0 mi SSW 4.6 mph - N/A   Mostly Cloudy
2:51 PM 71.6 °F 53.6 °F 53% 30.02 in 10.0 mi South 3.5 mph - N/A   Scattered Clouds
3:11 PM 73.4 °F 55.4 °F 53% 30.02 in 10.0 mi Calm Calm - N/A   Scattered Clouds
3:32 PM 73.4 °F 53.6 °F 50% 30.01 in 10.0 mi SSE 4.6 mph - N/A   Scattered Clouds
3:51 PM 71.6 °F 53.6 °F 53% 30.01 in 10.0 mi Calm Calm - N/A   Mostly Cloudy
4:11 PM 71.6 °F 55.4 °F 57% 30.00 in 10.0 mi SSE 3.5 mph - N/A   Overcast
4:32 PM 73.4 °F 55.4 °F 53% 30.00 in 10.0 mi South 4.6 mph - N/A   Mostly Cloudy
4:52 PM 71.6 °F 55.4 °F 57% 29.99 in 10.0 mi South 3.5 mph - N/A   Mostly Cloudy
5:11 PM 71.6 °F 55.4 °F 57% 29.98 in 10.0 mi Calm Calm - N/A   Overcast
5:31 PM 69.8 °F 57.2 °F 64% 29.98 in 10.0 mi Calm Calm - N/A   Overcast
5:51 PM 68.0 °F 57.2 °F 68% 29.98 in 10.0 mi Calm Calm - N/A   Overcast
6:11 PM 68.0 °F 57.2 °F 68% 29.97 in 10.0 mi Calm Calm - N/A   Overcast
6:31 PM 66.2 °F 60.8 °F 83% 29.97 in 10.0 mi Calm Calm - N/A   Overcast
6:52 PM 66.2 °F 59.0 °F 78% 29.97 in 10.0 mi Calm Calm - N/A   Overcast
7:11 PM 66.2 °F 60.8 °F 83% 29.96 in 10.0 mi Calm Calm - N/A   Overcast
7:31 PM 64.4 °F 59.0 °F 83% 29.96 in 10.0 mi Calm Calm - N/A   Overcast
7:52 PM 64.4 °F 59.0 °F 83% 29.96 in 10.0 mi Calm Calm - N/A   Mostly Cloudy
8:11 PM 64.4 °F 57.2 °F 77% 29.96 in 10.0 mi Calm Calm - N/A   Overcast
8:32 PM 64.4 °F 57.2 °F 77% 29.96 in 10.0 mi Calm Calm - N/A   Overcast
8:52 PM 64.4 °F 55.4 °F 73% 29.97 in 10.0 mi SE 3.5 mph - N/A   Overcast
9:12 PM 64.4 °F 55.4 °F 73% 29.96 in 10.0 mi SSE 4.6 mph - N/A   Overcast
9:31 PM 64.4 °F 55.4 °F 73% 29.96 in 10.0 mi SSE 4.6 mph - N/A   Overcast
9:51 PM 64.4 °F 57.2 °F 77% 29.96 in 10.0 mi South 3.5 mph - N/A   Overcast
10:11 PM 64.4 °F 57.2 °F 77% 29.95 in 10.0 mi South 3.5 mph - N/A   Overcast
10:32 PM 64.4 °F 55.4 °F 73% 29.95 in 10.0 mi SSE 6.9 mph - N/A   Overcast
10:51 PM 64.4 °F 57.2 °F 77% 29.95 in 10.0 mi SSE 3.5 mph - N/A   Overcast
11:12 PM 62.6 °F 57.2 °F 82% 29.94 in 10.0 mi SSE 3.5 mph - N/A   Overcast
11:31 PM 62.6 °F 55.4 °F 77% 29.94 in 10.0 mi SSE 3.5 mph - N/A   Overcast
11:51 PM 62.6 °F 55.4 °F 77% 29.94 in 10.0 mi Calm Calm - N/A   Overcast